Weather in Malaya Tomka

Russia / Novosibirsk Oblast     54°17′25″N   84°24′56″E
temp.,
°C
wind,
m/s
gust,
m/s
humid.,
%
clouds,
%
prec.,
mm/h
press.,
hPa
HPBL,
m
27 february, sat
sat2701:00−23sw51194100 0.2 1037732
04:00−24sw4995100 0.1 1038633
07:00−24sw3997100 0.3 1038536
10:00−23sw5995100 0.2 1038587
13:00−21sw5991100 0.4 1038762
16:00−20sw4789100 0.1 1038793
19:00−22sw2496100 0.1 1039111
22:00−26sw2210094 0.0 104019
28 february, sun
sun2801:00−28ssw229971 0.0 104019
04:00−29s2210056 0.0 104019
07:00−29sse2210064 0.0 104023
10:00−26sse259855 0.0 1039157
13:00−19sse469377 0.0 1036330
16:00−15sse488994 0.0 1033427
19:00−17se379597 0.0 1030189
22:00−14sse4995100 0.5 1027299
1 march, mon
mon101:00−11se4995100 1.2 1023377
04:00−9sse51095100 0.8 1020420
07:00−8sse51095100 2.6 1016674
10:00−7s61194100 1.5 1013771
13:00−4ssw71394100 3.4 1011901
16:00−3ssw81591100 0.7 1010805
19:00−3ssw71494100 1.1 1008869
22:00−2ssw81695100 1.1 1007823
2 march, tue
tue201:00−2sw71296100 2.6 1008782
04:00−3wsw51195100 0.7 1010838
07:00−7wsw71293100 1.9 1012763
10:00−12wsw5993100 0.3 1015487
13:00−12wsw5892100 0.4 1018527
16:00−11wsw4791100 0.1 1019602
19:00−13wsw2296100 0.2 101931
22:00−16ssw1198100 0.0 101920
3 march, wed
wed301:00−16ese119797 0.1 101720
04:00−15ese1197100 0.2 101520
07:00−14ene1296100 0.4 101524
10:00−11ne1194100 0.4 1014107
13:00−8w2393100 0.9 1016389
16:00−8w5791100 0.8 1018733
19:00−11w3695100 1.0 1020246
22:00−14sw359699 0.3 1023195